Home   Weather   Houmt Souk (Djerba)   Past weeks

Flag for Tunisia Past Weather in Houmt Souk (Djerba), Tunisia — Yesterday and Last 2 Weeks

Now
75 °F

Passing clouds.


Feels Like: 77 °F
Forecast: 71 / 79 °F
Wind: 8 mph from East

Location: Djerba Mellita

Current Time: Sep 28, 2016 at 9:34:49 PM

Latest Report: Sep 28, 2016 at 9:00 PM


Visibility: N/A

Pressure: 30.21 "Hg

Humidity: 69%

Dew Point: 64 °F

Location of Houmt Souk (Djerba)Location

Past Weather in Houmt Souk (Djerba) — Graph

°F

Houmt Souk (Djerba) Temperature Yesterday

Maximum temperature yesterday: 79 °F (at 1:00 PM)
Minimum temperature yesterday: 72 °F (at 12:30 AM)
Average temperature yesterday: 75 °F

High & Low Weather Summary for the Past Weeks

 TemperatureHumidityPressure
High102 °F (Sep 16, 12:30 PM)94% (Sep 24, 9:00 PM)30.18 "Hg (Sep 24, 9:00 PM)
Low64 °F (Sep 24, 9:00 PM)21% (Sep 16, 12:30 PM)29.83 "Hg (Sep 14, 4:00 AM)
Average79 °F65%30.00 "Hg
* Reported Sep 13 8:00 PM — Sep 28 8:30 PM, Houmt Souk (Djerba), Weather by CustomWeather, © 2016

Note: Actual official high and low records may vary slightly from our data, if they occured in-between our weather recording intervals... More about our weather records

Advertising

Houmt Souk (Djerba) Weather History for the Previous 24 Hours

Scroll right to see more
 ConditionsComfort  
Time TempWeatherWind HumidityBarometerVisibility
8:30 PM
Wed, Sep 28
75 °FPassing clouds.9 mph65%30.18 "HgN/A
8:00 PM75 °FPassing clouds.10 mph65%30.18 "HgN/A
7:30 PM75 °FPassing clouds.8 mph65%30.18 "HgN/A
7:00 PM75 °FPassing clouds.8 mph61%30.18 "HgN/A
6:30 PM75 °FPassing clouds.9 mph57%30.15 "HgN/A
6:00 PM75 °FPassing clouds.10 mph57%30.15 "HgN/A
5:30 PM75 °FPassing clouds.13 mph61%30.15 "HgN/A
5:00 PM77 °FPassing clouds.14 mph57%30.15 "HgN/A
4:30 PM77 °FPassing clouds.14 mph61%30.15 "HgN/A
4:00 PM77 °FPassing clouds.13 mph61%30.15 "HgN/A
3:30 PM77 °FPassing clouds.13 mph61%30.15 "HgN/A
3:00 PM77 °FPassing clouds.14 mph61%30.15 "HgN/A
2:30 PM77 °FPassing clouds.13 mph61%30.15 "HgN/A
2:00 PM77 °FPassing clouds.13 mph61%30.15 "HgN/A
1:30 PM77 °FPassing clouds.12 mph61%30.15 "HgN/A
1:00 PM77 °FPassing clouds.12 mph54%30.15 "HgN/A
12:30 PM77 °FPassing clouds.13 mph57%30.18 "HgN/A
12:00 PM75 °FPassing clouds.12 mph61%30.18 "HgN/A
11:30 AM75 °FPassing clouds.16 mph61%30.18 "HgN/A
11:00 AM75 °FScattered clouds.16 mph61%30.18 "HgN/A
10:30 AM75 °FScattered clouds.13 mph69%30.18 "HgN/A
10:00 AM72 °FScattered clouds.13 mph69%30.18 "HgN/A
9:30 AM73 °FScattered clouds.17 mph69%30.18 "HgN/A
9:00 AM73 °FPassing clouds.8 mph69%30.15 "HgN/A
8:30 AM72 °FPassing clouds.8 mph78%30.15 "HgN/A
8:00 AM72 °FScattered clouds.3 mph69%30.15 "Hg5 mi
7:30 AM70 °FScattered clouds.3 mph78%30.15 "Hg4 mi
7:00 AM70 °FScattered clouds.5 mph73%30.12 "Hg4 mi
6:30 AM70 °FScattered clouds.7 mph78%30.12 "Hg4 mi
6:00 AM68 °FPassing clouds.5 mph83%30.12 "Hg4 mi
5:30 AM68 °FMild.No wind78%30.09 "HgN/A
5:00 AM66 °FMild.No wind78%30.09 "HgN/A
4:30 AM66 °FPassing clouds.6 mph78%30.12 "Hg4 mi
4:00 AM66 °FPassing clouds.5 mph78%30.12 "Hg4 mi
3:30 AM66 °FPassing clouds.14 mph83%30.12 "Hg4 mi
3:00 AM66 °FLight rain. Passing clouds.9 mph88%30.12 "Hg4 mi
2:30 AM66 °FRain. Passing clouds.14 mph88%30.12 "Hg4 mi
2:00 AM66 °FThunderstorms. Passing clouds.17 mph88%30.15 "Hg4 mi
1:00 AM73 °FThunderstorms. Passing clouds.3 mph61%30.12 "Hg4 mi
12:30 AM72 °FThunderstorms. Passing clouds.2 mph65%30.12 "Hg5 mi
12:00 AM73 °FPassing clouds.3 mph61%30.12 "Hg5 mi
11:30 PM
Tue, Sep 27
73 °FPassing clouds.7 mph57%30.12 "Hg5 mi
11:00 PM73 °FPassing clouds.8 mph61%30.12 "Hg5 mi
10:30 PM73 °FPassing clouds.No wind69%30.12 "Hg5 mi
10:00 PM73 °FPassing clouds.3 mph69%30.12 "Hg5 mi
9:30 PM73 °FPassing clouds.3 mph69%30.12 "Hg5 mi
9:00 PM73 °FPassing clouds.3 mph69%30.12 "Hg5 mi
Weather by CustomWeather, © 2016

See weather overviewHow to use our weather pages